TimeMDT,TemperatureF,Dew PointF,Humidity,Sea Level PressureIn,VisibilityMPH,Wind Direction,Wind SpeedMPH,Gust SpeedMPH,PrecipitationIn,Events,Conditions,WindDirDegrees,DateUTC
12:15 AM,30.2,26.6,86,30.24,10.0,North,5.8,-,N/A,,Clear,350,2013-09-28 06:15:00
12:35 AM,30.2,26.6,86,30.24,10.0,Calm,Calm,-,N/A,,Clear,0,2013-09-28 06:35:00
12:55 AM,30.2,24.8,80,30.24,10.0,NW,5.8,-,N/A,,Clear,320,2013-09-28 06:55:00
1:15 AM,28.4,24.8,86,30.25,10.0,Calm,Calm,-,N/A,,Clear,0,2013-09-28 07:15:00
1:35 AM,28.4,24.8,86,30.26,10.0,Calm,Calm,-,N/A,,Clear,0,2013-09-28 07:35:00
1:55 AM,26.6,21.2,80,30.26,0.8,Calm,Calm,-,N/A,,Mostly Cloudy,0,2013-09-28 07:55:00
2:15 AM,26.6,24.8,93,30.27,4.0,Calm,Calm,-,N/A,,Partly Cloudy,0,2013-09-28 08:15:00
2:35 AM,24.8,21.2,86,30.28,1.0,Calm,Calm,-,N/A,,Mostly Cloudy,0,2013-09-28 08:35:00
2:55 AM,24.8,19.4,80,30.28,1.0,Calm,Calm,-,N/A,,Clear,0,2013-09-28 08:55:00
3:15 AM,26.6,21.2,80,30.28,0.5,Calm,Calm,-,N/A,,Mostly Cloudy,0,2013-09-28 09:15:00
3:35 AM,24.8,23.0,93,30.29,2.0,Calm,Calm,-,N/A,,Scattered Clouds,0,2013-09-28 09:35:00
3:55 AM,26.6,23.0,86,30.29,10.0,North,3.5,-,N/A,,Clear,10,2013-09-28 09:55:00
4:15 AM,24.8,21.2,86,30.30,2.0,Calm,Calm,-,N/A,,Scattered Clouds,0,2013-09-28 10:15:00
4:35 AM,24.8,21.2,86,30.30,1.5,Calm,Calm,-,N/A,,Mostly Cloudy,0,2013-09-28 10:35:00
4:55 AM,24.8,21.2,86,30.31,0.2,Calm,Calm,-,N/A,,Overcast,0,2013-09-28 10:55:00
5:15 AM,24.8,21.2,86,30.31,0.2,Calm,Calm,-,N/A,,Overcast,0,2013-09-28 11:15:00
5:35 AM,24.8,21.2,86,30.32,0.2,Calm,Calm,-,N/A,,Overcast,0,2013-09-28 11:35:00
5:55 AM,24.8,21.2,86,30.32,0.2,Calm,Calm,-,N/A,,Overcast,0,2013-09-28 11:55:00
6:15 AM,23.0,21.2,93,30.33,0.2,Calm,Calm,-,N/A,,Overcast,0,2013-09-28 12:15:00
6:35 AM,23.0,19.4,86,30.34,0.2,Calm,Calm,-,N/A,,Overcast,0,2013-09-28 12:35:00
6:55 AM,23.0,19.4,86,30.35,0.2,Calm,Calm,-,N/A,,Overcast,0,2013-09-28 12:55:00
7:15 AM,23.0,21.2,93,30.36,1.2,Calm,Calm,-,N/A,,Clear,0,2013-09-28 13:15:00
7:35 AM,21.2,17.6,86,30.37,0.5,Calm,Calm,-,N/A,,Unknown,0,2013-09-28 13:35:00
7:55 AM,24.8,21.2,86,30.38,3.0,Calm,Calm,-,N/A,,Clear,0,2013-09-28 13:55:00
8:15 AM,26.6,23.0,86,30.39,8.0,Calm,Calm,-,N/A,,Clear,0,2013-09-28 14:15:00
8:35 AM,24.8,19.4,80,30.39,0.5,Calm,Calm,-,N/A,,Mostly Cloudy,0,2013-09-28 14:35:00
8:55 AM,26.6,24.8,93,30.40,10.0,Calm,Calm,-,N/A,,Partly Cloudy,0,2013-09-28 14:55:00
9:15 AM,28.4,24.8,86,30.40,10.0,Calm,Calm,-,N/A,,Clear,0,2013-09-28 15:15:00
9:35 AM,30.2,26.6,86,30.40,10.0,Calm,Calm,-,N/A,,Clear,0,2013-09-28 15:35:00
9:55 AM,32.0,26.6,80,30.40,10.0,Calm,Calm,-,N/A,,Clear,0,2013-09-28 15:55:00
10:15 AM,32.0,28.4,87,30.40,10.0,NE,3.5,-,N/A,,Clear,50,2013-09-28 16:15:00
10:35 AM,35.6,28.4,75,30.40,10.0,Calm,Calm,-,N/A,,Clear,0,2013-09-28 16:35:00
10:55 AM,35.6,28.4,75,30.39,10.0,Calm,Calm,-,N/A,,Clear,0,2013-09-28 16:55:00
11:15 AM,37.4,26.6,65,30.39,10.0,Calm,Calm,-,N/A,,Clear,0,2013-09-28 17:15:00
11:35 AM,37.4,26.6,65,30.38,10.0,Calm,Calm,-,N/A,,Clear,0,2013-09-28 17:35:00
11:55 AM,39.2,28.4,65,30.38,10.0,East,4.6,-,N/A,,Clear,90,2013-09-28 17:55:00
12:15 PM,41.0,26.6,57,30.38,10.0,ENE,3.5,-,N/A,,Clear,70,2013-09-28 18:15:00
12:35 PM,42.8,24.8,49,30.37,10.0,South,4.6,-,N/A,,Clear,180,2013-09-28 18:35:00
12:55 PM,44.6,24.8,46,30.37,10.0,South,3.5,-,N/A,,Clear,170,2013-09-28 18:55:00
1:15 PM,46.4,24.8,43,30.36,10.0,SE,3.5,-,N/A,,Clear,130,2013-09-28 19:15:00
1:35 PM,46.4,21.2,37,30.35,10.0,SE,3.5,-,N/A,,Clear,130,2013-09-28 19:35:00
1:55 PM,46.4,21.2,37,30.34,10.0,SSW,3.5,-,N/A,,Clear,210,2013-09-28 19:55:00
2:15 PM,48.2,19.4,32,30.34,10.0,Calm,Calm,-,N/A,,Clear,0,2013-09-28 20:15:00
2:35 PM,51.8,17.6,26,30.33,10.0,SSW,3.5,-,N/A,,Clear,210,2013-09-28 20:35:00
2:55 PM,51.8,17.6,26,30.33,10.0,SSE,3.5,-,N/A,,Clear,160,2013-09-28 20:55:00
3:15 PM,51.8,19.4,28,30.33,10.0,Calm,Calm,-,N/A,,Clear,0,2013-09-28 21:15:00
3:35 PM,53.6,23.0,30,30.32,10.0,Calm,Calm,-,N/A,,Clear,0,2013-09-28 21:35:00
3:55 PM,53.6,26.6,35,30.32,10.0,SW,3.5,-,N/A,,Clear,220,2013-09-28 21:55:00
4:15 PM,53.6,24.8,33,30.31,10.0,SW,3.5,-,N/A,,Clear,220,2013-09-28 22:15:00
4:35 PM,53.6,26.6,35,30.31,10.0,Calm,Calm,-,N/A,,Clear,0,2013-09-28 22:35:00
4:55 PM,55.4,26.6,33,30.31,10.0,Calm,Calm,-,N/A,,Clear,0,2013-09-28 22:55:00
5:15 PM,55.4,26.6,33,30.31,10.0,Calm,Calm,-,N/A,,Clear,0,2013-09-28 23:15:00
5:35 PM,55.4,26.6,33,30.31,10.0,Calm,Calm,-,N/A,,Clear,0,2013-09-28 23:35:00
5:55 PM,55.4,26.6,33,30.31,10.0,Calm,Calm,-,N/A,,Clear,0,2013-09-28 23:55:00
6:15 PM,55.4,26.6,33,30.31,10.0,Calm,Calm,-,N/A,,Clear,0,2013-09-29 00:15:00
6:35 PM,55.4,26.6,33,30.31,10.0,NNW,3.5,-,N/A,,Clear,330,2013-09-29 00:35:00
6:55 PM,53.6,30.2,41,30.32,9.0,NNW,5.8,-,N/A,,Clear,330,2013-09-29 00:55:00
7:15 PM,48.2,28.4,46,30.32,10.0,NW,8.1,-,N/A,,Clear,320,2013-09-29 01:15:00
7:35 PM,46.4,28.4,50,30.33,10.0,NNW,8.1,-,N/A,,Clear,340,2013-09-29 01:35:00
7:55 PM,46.4,30.2,53,30.34,10.0,North,4.6,-,N/A,,Clear,350,2013-09-29 01:55:00
8:15 PM,44.6,28.4,53,30.35,10.0,NW,4.6,-,N/A,,Clear,320,2013-09-29 02:15:00
8:35 PM,42.8,28.4,57,30.35,10.0,NNW,5.8,-,N/A,,Clear,340,2013-09-29 02:35:00
8:55 PM,42.8,28.4,57,30.36,10.0,North,3.5,-,N/A,,Clear,360,2013-09-29 02:55:00
9:15 PM,42.8,28.4,57,30.36,10.0,NNE,5.8,-,N/A,,Clear,30,2013-09-29 03:15:00
9:35 PM,39.2,26.6,61,30.37,10.0,Calm,Calm,-,N/A,,Clear,0,2013-09-29 03:35:00
9:55 PM,39.2,28.4,65,30.37,10.0,Calm,Calm,-,N/A,,Clear,0,2013-09-29 03:55:00
10:15 PM,39.2,26.6,61,30.38,10.0,Calm,Calm,-,N/A,,Clear,0,2013-09-29 04:15:00
10:35 PM,39.2,26.6,61,30.38,10.0,Calm,Calm,-,N/A,,Clear,0,2013-09-29 04:35:00
10:55 PM,37.4,26.6,65,30.38,10.0,North,4.6,-,N/A,,Clear,360,2013-09-29 04:55:00
11:15 PM,37.4,24.8,60,30.39,10.0,Calm,Calm,-,N/A,,Clear,0,2013-09-29 05:15:00
11:35 PM,35.6,26.6,70,30.39,10.0,Calm,Calm,-,N/A,,Clear,0,2013-09-29 05:35:00
11:55 PM,35.6,26.6,70,30.40,10.0,Calm,Calm,-,N/A,,Clear,0,2013-09-29 05:55:00